Location: *
(58.7167°N, 26.1833°E)
Time: 19:20:59
(UTC+00:00)

Cosmos 2297 Rocket - Pass Details

Date: 25 August 2019
Orbit: 841 x 842 km, 71.0° (Epoch: 19 October)

Event Time Altitude Azimuth Distance (km) Brightness Sun altitude
Exits shadow 21:58:25 11° 111° (ESE) 2,381 4.3 -20.6°
Maximum altitude 21:59:56 12° 95° (E) 2,301 4.4 -20.6°
Drops below altitude 10° 22:02:08 10° 71° (ENE) 2,471 4.8 -20.6°
Sets 22:06:09 0° 44° (NE) 3,412 6.0 -20.6°
